Terminal Aerodrome Forecast
Issued by NWS

Home | Current Version | Previous Version | Text Only | Print | Product List | Glossary On
Versions: 1 2 3 4 5 6 7 8 9 10 11
000
FTUS44 KEPZ 300500
TAFTCS
TAF
KTCS 300520Z 3006/3106 09010KT P6SM SHRA SCT020 OVC035
     FM301200 04010KT 3SM -RA BR OVC020
     FM302000 VRB05KT P6SM -SHRA BKN020
     FM310200 29006KT P6SM -SHRA BKN020=

USA.gov is the U.S. government's official web portal to all federal, state and local government web resources and services.